Flag for U.S.A. Weather past 2 weeks in Columbus, Georgia, U.S.A.

Now
76 °F

Clear.


Feels Like: 76 °F
Forecast: 71 / 94 °F
Wind: No wind

Location: Columbus Metropolitan Airport

Current Time: Aug 1, 2015 at 11:02:49 PM

Latest Report: Aug 1, 2015 at 9:51 PM


Visibility: 10 mi

Pressure: 29.90 "Hg

Humidity: 85%

Dew point: 71 °F

Location of ColumbusLocation

Historic Weather in Columbus — Graph

°F

Columbus temperature yesterday

Maximum temperature yesterday: 96 °F (at 3:51 PM)
Minimum temperature yesterday: 76 °F (at 5:51 PM)
Average temperature yesterday: 82 °F

Past Weeks' High & Low Weather Summary

 TemperatureHumidityPressure
High98 °F (Jul 18, 4:51 PM)100% (Jul 25, 7:03 AM)30.03 "Hg (Jul 25, 7:03 AM)
Low71 °F (Jul 26, 6:51 AM)35% (Jul 26, 3:51 PM)29.79 "Hg (Jul 21, 5:51 PM)
Average83 °F68%29.93 "Hg
* Reported Jul 17 9:51 PM — Aug 1 9:51 PM, Columbus, Weather by CustomWeather, © 2015

Note: Actual official high and low records may vary slightly from our data, if they occured in-between our weather recording intervals... More about our weather records

Advertising

Columbus weather history for previous 24 hours

 ConditionsComfort  
Time TempWeatherWind HumidityBarometerVisibility
9:51 PM
Sat, Aug 1
76 °FClear.No wind85%29.90 "Hg10 mi
8:51 PM78 °FScattered clouds.3 mph79%29.89 "Hg10 mi
7:51 PM79 °FScattered clouds.5 mph82%29.86 "Hg10 mi
6:51 PM81 °FOvercast.9 mph72%29.85 "Hg10 mi
5:51 PM90 °FOvercast.6 mph54%29.84 "Hg10 mi
4:51 PM92 °FScattered clouds.6 mph49%29.83 "Hg10 mi
3:51 PM91 °FBroken clouds.6 mph49%29.85 "Hg10 mi
2:51 PM90 °FPartly sunny.6 mph54%29.87 "Hg10 mi
1:51 PM89 °FScattered clouds.5 mph57%29.89 "Hg10 mi
12:51 PM88 °FScattered clouds.6 mph61%29.90 "Hg10 mi
12:04 PM84 °FScattered clouds.6 mph70%29.94 "Hg10 mi
10:51 AM81 °FScattered clouds.3 mph74%29.93 "Hg10 mi
9:51 AM79 °FSunny.5 mph77%29.91 "Hg10 mi
8:51 AM74 °FPassing clouds.No wind91%29.91 "Hg10 mi
7:58 AM72 °FFog.3 mph100%29.92 "Hg1 mi
6:51 AM73 °FFog.No wind97%29.90 "Hg1 mi
5:51 AM73 °FFog.No wind97%29.90 "Hg1 mi
4:51 AM74 °FFog.No wind94%29.89 "Hg6 mi
3:51 AM74 °FPassing clouds.No wind94%29.88 "Hg9 mi
2:51 AM74 °FFog.No wind97%29.89 "Hg1 mi
1:51 AM74 °FPassing clouds.No wind97%29.91 "Hg8 mi
12:51 AM76 °FPassing clouds.3 mph91%29.93 "Hg10 mi
11:51 PM
Fri, Jul 31
76 °FPassing clouds.5 mph91%29.92 "Hg10 mi
Weather by CustomWeather, © 2015

See weather overviewHow to use our weather pages